This is the latest recevied weather packets stored in our database for station/object dl1wer-13. If no packets are shown the sender has not sent any weather packets the latest 10 day(s).
| Time | Temp. | Humidity | Pressure | Rain* | Wind** | Luminosity | Snow |
|---|---|---|---|---|---|---|---|
| 1777568417 | 13.89° C | 20% | 1050.2 hPa | 0 mm | - | - | - |
| 1777567817 | 14.44° C | 20% | 1050 hPa | 0 mm | - | - | - |
| 1777566017 | 14.44° C | 20% | 1049.9 hPa | 0 mm | - | - | - |
| 1777564819 | 15° C | 20% | 1049.7 hPa | 0 mm | - | - | - |
| 1777564217 | 15° C | 20% | 1049.8 hPa | 0 mm | - | - | - |
| 1777563017 | 15° C | 20% | 1049.8 hPa | 0 mm | - | - | - |
| 1777562417 | 15.56° C | 20% | 1049.7 hPa | 0 mm | - | - | - |
| 1777561218 | 15.56° C | 20% | 1049.7 hPa | 0 mm | - | - | - |
| 1777559418 | 15.56° C | 20% | 1049.7 hPa | 0 mm | - | - | - |
| 1777558817 | 15.56° C | 20% | 1049.6 hPa | 0 mm | - | - | - |
| 1777558217 | 15° C | 20% | 1049.7 hPa | 0 mm | - | - | - |
| 1777557617 | 15° C | 20% | 1049.4 hPa | 0 mm | - | - | - |
| 1777554617 | 15° C | 20% | 1049.7 hPa | 0 mm | - | - | - |
| 1777554018 | 14.44° C | 20% | 1049.8 hPa | 0 mm | - | - | - |
| 1777552817 | 14.44° C | 20% | 1050.3 hPa | 0 mm | - | - | - |
| 1777552217 | 14.44° C | 20% | 1050.4 hPa | 0 mm | - | - | - |
| 1777551618 | 14.44° C | 20% | 1050.4 hPa | 0 mm | - | - | - |
| 1777551016 | 13.89° C | 22% | 1050.3 hPa | 0 mm | - | - | - |
| 1777548618 | 13.33° C | 24% | 1050.7 hPa | 0 mm | - | - | - |
| 1777548017 | 13.33° C | 26% | 1050.8 hPa | 0 mm | - | - | - |
| 1777547417 | 13.33° C | 26% | 1050.6 hPa | 0 mm | - | - | - |
| 1777545017 | 12.78° C | 30% | 1050.8 hPa | 0 mm | - | - | - |
| 1777544416 | 12.22° C | 32% | 1050.7 hPa | 0 mm | - | - | - |
| 1777543817 | 11.67° C | 33% | 1050.9 hPa | 0 mm | - | - | - |
| 1777543217 | 11.67° C | 33% | 1050.9 hPa | 0 mm | - | - | - |
* Rain latest hour (hover to see other rain measurements)
** Current wind speed in m/s (hover to see current wind gust speed)